Regional Weather Roundup
Issued by NWS

Home | Current Version | Previous Version | Graphics & Text | Print | Product List | Glossary On
Versions: 1 2 3 4 5 6 7 8 9 10 11 12 13 14 15 16 17 18 19 20 21 22 23 24 25 26 27 28 29 30 31 32 33 34 35 36 37 38 39 40 41 42 43 44 45 46 47 48 49 50
000
ASUS43 KOAX 290910
RWRNE

WEATHER ROUNDUP FOR NEBRASKA
NATIONAL WEATHER SERVICE OMAHA NE
400 AM CDT WED JUL 29 2015

NOTES: SATELLITE DATA IS BEING USED TO AUGMENT CLOUD COVER ABOVE
       12000 FEET.
       "FAIR" INDICATES FEW OR NO CLOUDS BELOW 12,000 FEET WITH NO
       SIGNIFICANT WEATHER AND/OR OBSTRUCTIONS TO VISIBILITY.

  * THESE STATIONS DO NOT REPORT WEATHER SUCH AS RAIN...SNOW OR FOG.

NEZ001>004-019>022-054>056-291000-
NEBRASKA PANHANDLE

CITY           SKY/WX    TMP DP  RH WIND       PRES   REMARKS
SCOTTSBLUFF    CLEAR     52  46  80 N3        30.27R
ALLIANCE       CLEAR     43  40  89 SW6       30.25R
CHADRON        CLEAR     47  42  83 SW6       30.24S
KIMBALL        CLEAR     54  42  63 CALM      30.28R
SIDNEY         CLEAR     50  41  71 CALM      30.27S
$$

NEZ057>060-069>072-079>082-291000-
SOUTHWEST NEBRASKA

CITY           SKY/WX    TMP DP  RH WIND       PRES   REMARKS
NORTH PLATTE   PTCLDY    58  49  72 NE6       30.21R
IMPERIAL       CLEAR     57  48  72 NW5       30.22R
LEXINGTON      CLEAR     56  52  86 W3        30.19R
MCCOOK         PTCLDY    59  50  72 CALM      30.18R
OGALLALA       CLEAR     54  51  89 CALM      30.24R
$$

NEZ005>010-023>029-035>040-094-291000-
NORTH CENTRAL NEBRASKA

CITY           SKY/WX    TMP DP  RH WIND       PRES   REMARKS
VALENTINE      CLEAR     50  45  83 W8        30.19R
AINSWORTH      CLEAR     55  48  80 W6        30.19R
BROKEN BOW     CLEAR     56  50  80 CALM      30.20R
O`NEILL        CLEAR     54  53  95 W3        30.17R
ORD            CLEAR     55  52  89 CALM      30.17R
THEDFORD       CLEAR     54  48  81 CALM      30.23R
$$

NEZ041-046>049-061>064-073>077-083>087-291000-
SOUTH CENTRAL NEBRASKA

CITY           SKY/WX    TMP DP  RH WIND       PRES   REMARKS
GRAND ISLAND   PTCLDY    57  54  89 NW6       30.15R
AURORA         CLEAR     57  57 100 CALM      30.13S
HASTINGS       PTCLDY    62  56  80 CALM      30.15R
HEBRON         CLEAR     62  59  89 CALM      30.11R
HOLDREGE       PTCLDY    58  54  88 CALM      30.17R
KEARNEY *      PTCLDY    61  54  77 NW5       30.16R
YORK           CLEAR     59  57  94 CALM      30.12S
$$

NEZ011>018-030>034-042>045-291000-
NORTHEAST NEBRASKA

CITY           SKY/WX    TMP DP  RH WIND       PRES   REMARKS
NORFOLK        CLEAR     55  53  93 W5        30.13R
ALBION         CLEAR     54  51  91 NW3       30.15S
BLAIR          MOCLDY    62  58  87 N5        30.09S
COLUMBUS *     CLEAR     54  48  82 CALM      30.13R
FREMONT        PTCLDY    61  59  93 CALM      30.11R
TEKAMAH        PTCLDY    61  59  93 CALM      30.08S
WAYNE          CLEAR     55  54  94 S3        30.12R
$$

NEZ050>053-065>068-078-088>093-291000-
SOUTHEAST NEBRASKA

CITY           SKY/WX    TMP DP  RH WIND       PRES   REMARKS
LINCOLN        PTCLDY    61  60  97 N7        30.09F
OMAHA EPPLEY   MOCLDY    65  62  90 N7        30.08R
BEATRICE       MOCLDY    63  62  96 CALM      30.09R
FALLS CITY     CLOUDY    71  70  96 N5        30.05R
NEBRASKA CITY  CLOUDY    67  59  73 NE5       30.08R
PLATTSMOUTH    CLOUDY    65  60  84 NW5       30.08R
$$

NEZ044-045-051>053-067-291000-
OMAHA AREA

CITY           SKY/WX    TMP DP  RH WIND       PRES   REMARKS
OMAHA EPPLEY   MOCLDY    65  62  90 N7        30.08R
BLAIR          MOCLDY    62  58  87 N5        30.09S
FREMONT        PTCLDY    61  59  93 CALM      30.11R
MILLARD        MOCLDY    64  62  91 NW3       30.08S
OFFUTT AFB     MOCLDY    64  60  86 NW5       30.06S
PLATTSMOUTH    CLOUDY    65  60  84 NW5       30.08R
WAHOO          FAIR      62  60  93 NW7       30.10R
$$


USA.gov is the U.S. government's official web portal to all federal, state and local government web resources and services.